Regional Weather Roundup
Issued by NWS

Home | Current Version | Previous Version | Graphics & Text | Print | Product List | Glossary Off
Versions: 1 2 3 4 5 6 7 8 9 10 11 12 13 14 15 16 17 18 19 20 21 22 23 24 25 26 27 28 29 30 31 32 33 34 35 36 37 38 39 40 41 42 43 44 45 46 47 48 49 50

000
ASUS43 KMKX 061759
RWRWI

WISCONSIN REGIONAL WEATHER ROUNDUP
NATIONAL WEATHER SERVICE MILWAUKEE/SULLIVAN WI
1200 PM CST FRI MAR 06 2015

NOTE: "FAIR" INDICATES FEW OR NO CLOUDS BELOW 12,000 FEET WITH NO
SIGNIFICANT WEATHER AND/OR OBSTRUCTIONS TO VISIBILITY.

WIZ001-002-006>008-014>016-023>028-061900-
NORTHWEST WISCONSIN

CITY           SKY/WX    TMP DP  RH WIND       PRES   REMARKS
SUPERIOR ARPT  FAIR      27  11  51 W13       30.00S WCI  16
ASHLAND        FAIR      26   8  46 SW12      29.97F WCI  16
6HR MIN TEMP:  10; 6HR MAX TEMP:  26;

HAYWARD        FAIR      23   7  50 SW10      29.99S WCI  12
6HR MIN TEMP:  10; 6HR MAX TEMP:  23;

SIREN          FAIR      26  11  53 W8        30.02F WCI  17
CUMBERLAND     FAIR      23  10  58 SW8       30.01F WCI  14
RICE LAKE      FAIR      23  10  56 SW7       30.04F WCI  15
CHETEK         FAIR      23   8  52 SW5       30.04F WCI  17
LADYSMITH      FAIR      21   8  56 SW8       30.04F WCI  11
EAU CLAIRE     NOT AVBL
MENOMONIE      FAIR      26  11  54 S10       30.06F WCI  16
NEW RICHMOND   FAIR      26  11  54 SW7       30.04F WCI  18
OSCEOLA        FAIR      28  13  52 SW3       30.06F
$$

WIZ003>005-009-010-017-018-061900-
NORTH CENTRAL WISCONSIN

CITY           SKY/WX    TMP DP  RH WIND       PRES   REMARKS
MANITOWISH WTR FAIR      20   5  53 SW13      29.94F WCI   7
ARBOR VITAE    FAIR      22   7  54 SW10      29.95F WCI  11
WOODRUFF       FAIR      22   7  54 SW10      29.95F WCI  11
RHINELANDER    FAIR      20   6  55 W13       29.97F WCI   7
6HR MIN TEMP:   1; 6HR MAX TEMP:  20;

EAGLE RIVER    FAIR      19   3  49 SW12G18   29.95F WCI   7
LAND O LAKES   PTSUNNY   22   4  45 SW8G16    29.94F WCI  13
PHILLIPS       FAIR      18   5  56 SW10G16   29.98F WCI   7
TOMAHAWK       FAIR      19   4  52 CALM      30.00F
MEDFORD        CLOUDY    18   7  61 SW8       30.02F WCI   8
MERRILL        CLOUDY    21   7  53 SW8       30.03F WCI  12
$$

WIZ029-030-035-036-043>047-061900-
CENTRAL WISCONSIN

CITY           SKY/WX    TMP DP  RH WIND       PRES   REMARKS
WAUSAU         CLOUDY    21   8  57 SW10      30.03F WCI  10
6HR MIN TEMP:  -2; 6HR MAX TEMP:  21;

MOSINEE        PTSUNNY   23  10  58 SW12      30.06F WCI  12
MARSHFIELD     CLOUDY    24   9  52 SW14      30.05F WCI  12
6HR MIN TEMP:  -1; 6HR MAX TEMP:  24;

STEVENS POINT  CLOUDY    21   6  52 SW10      30.08F WCI  10
WAUPACA        FAIR      29   8  41 S12       30.10F WCI  20
WAUTOMA        NOT AVBL
WISC RAPIDS    CLOUDY    25   8  48 SW15      30.10F WCI  13
6HR MIN TEMP:  -1; 6HR MAX TEMP:  25;

CAMP DOUGLAS   NOT AVBL
$$

WIZ011>013-019>022-031-037>040-048>050-061900-
NORTHEAST WISCONSIN

CITY           SKY/WX    TMP DP  RH WIND       PRES   REMARKS
ANTIGO         CLOUDY    18   7  61 SW16      30.02S WCI   3
SHAWANO        CLOUDY    25   6  46 SW8G17    30.10F WCI  16
OCONTO         PTSUNNY   22   6  49 W16G26    30.11F WCI   8
STURGEON BAY   CLOUDY    25   7  46 SW25G33   30.11F WCI   9
6HR MIN TEMP:   1; 6HR MAX TEMP:  25;

GREEN BAY      CLOUDY    21   9  59 SW17G29   30.13F WCI   7
6HR MIN TEMP:   1; 6HR MAX TEMP:  21;

MANITOWOC      NOT AVBL
APPLETON       MOSUNNY   23   9  54 S17G25    30.12F WCI   9
CLINTONVILLE   CLOUDY    25   9  50 SW16G24   30.10F WCI  12
OSHKOSH        PTSUNNY   24   9  52 SW18G29   30.12F WCI  10
6HR MIN TEMP:   1; 6HR MAX TEMP:  24;

$$

WIZ032>034-041-042-053>061-061900-
SOUTHWEST WISCONSIN

CITY           SKY/WX    TMP DP  RH WIND       PRES   REMARKS
LA CROSSE      FAIR      28  15  58 S15       30.13F WCI  16
6HR MIN TEMP:   7; 6HR MAX TEMP:  28;

SPARTA         PTSUNNY   28  11  49 SW10G16   30.12F WCI  18
VIROQUA        FAIR      24  12  59 SW15      30.12F WCI  12
BOSCOBEL       FAIR      27  11  51 S14       30.18F WCI  16
6HR MIN TEMP:  -9; 6HR MAX TEMP:  27; 6HR PCP: TRACE;

PRAIRIE DU CHI FAIR      26  11  53 SW10      30.19F WCI  16
PLATTEVILLE    FAIR      22  12  64 S15       30.20F WCI   9
$$

WIZ056-057-062-063-064-067-068-061900-
SOUTH CENTRAL WISCONSIN

CITY           SKY/WX    TMP DP  RH WIND       PRES   REMARKS
REEDSBURG      PTSUNNY   23  10  56 SW16      30.15F WCI  10
BARABOO/DELLS  CLOUDY    25  10  52 SW15      30.14F WCI  13
LONE ROCK      NOT AVBL
MINERAL POINT  FAIR      23  10  58 S14       30.17F WCI  11
MADISON        FAIR      23   8  52 S13G21    30.18F WCI  11
6HR MIN TEMP:   2; 6HR MAX TEMP:  23;

MIDDLETON      FAIR      26   7  44 SW16G22   30.19F WCI  14
WATERTOWN      FAIR      23   9  55 S14       30.20F WCI  10
MONROE         FAIR      21  10  63 S22G29    30.20F WCI   5
JANESVILLE     SUNNY     25   9  50 S16G22    30.23F WCI  12
$$

WIZ051-052-058>065-066-070>072-061900-
SOUTHEAST WISCONSIN

CITY           SKY/WX    TMP DP  RH WIND       PRES   REMARKS
MILWAUKEE      FAIR      23   6  48 SW24G31   30.24F WCI   7
6HR MIN TEMP:   0; 6HR MAX TEMP:  23;

WAUKESHA       SUNNY     21   7  53 S10G20    30.23F WCI  10
MILWAUKEE/TIMM SUNNY     25   5  42 MISG      30.23F
RACINE         FAIR      23   7  50 SW21G28   30.27F WCI   8
6HR MIN TEMP:   0; 6HR MAX TEMP:  23;

BURLINGTON     FAIR      20   7  55 S20G30    30.26S WCI   5
KENOSHA        PTSUNNY   24   8  50 SW18G26   30.26F WCI  10
6HR MIN TEMP:   1; 6HR MAX TEMP:  24;

FOND DU LAC    FAIR      26   9  48 S17G28    30.14F WCI  13
6HR MIN TEMP:   4; 6HR MAX TEMP:  26;

SHEBOYGAN      CLOUDY    25   9  50 S18       30.17F WCI  11
6HR MIN TEMP:  -1; 6HR MAX TEMP:  25;

WEST BEND      FAIR      27   5  39 S16       30.19F WCI  14
JUNEAU         FAIR      22   9  55 S17G24    30.19F WCI   8
$$

LSZ147-162-061900-
LAKE SUPERIOR

STATION/POSITION TIME  TEMP    WIND        PRES    WAVE
                       AIR SEA DIR/SP/G            HT/PER
                 (UTC) (F)     (DEG/KT/KT) (MB)    (FT/S)
DEVILS ISLAND    1700   20     240/ 22/ 26 1015.5F
PORT WING        1700   23     260/ 11/ 19 1015.6
SAXON HARBOR     1700   23     190/  9/ 17 1015.6F
$$

LMZ867-665-643>646-061900-
LAKE MICHIGAN

STATION/POSITION TIME  TEMP    WIND        PRES    WAVE
                       AIR SEA DIR/SP/G            HT/PER
                 (UTC) (F)     (DEG/KT/KT) (MB)    (FT/S)
NORTHPORT PIER   1702   25     200/  8/ 17 1019.6F
SISTER BAY       1713   31     280/ 12/ 14   N/A
KEWAUNEE LAKESHO 1700   21     210/ 14/ 18 1021.0F
SHEBOYGAN LAKESH 1700   20     210/ 21/ 24 1024.8F
PORT WASHINGTON  1700   25     210/  9/ 15 1025.1F
MILWAUKEE LAKESH 1700   20     200/ 19/ 22   N/A
KENOSHA   LAKESH 1700   20     200/ 14/ 22 1025.7F
$$

TC  - TEMPERATURE IN CELSIUS
VSB - VISIBILITY IN STATUTE MILES
WCI - WIND CHILL INDEX
HX  - HEAT INDEX



USA.gov is the U.S. government's official web portal to all federal, state and local government web resources and services.